星链-4339 (STARLINK-4339 )

导读 | 豆包AI

STARLINK-4339是美国SpaceX公司星链(Starlink)卫星互联网星座的一员,于2022年7月11日发射升空,属于星链低轨卫星星座中的一颗组网卫星。星链项目旨在通过近地轨道大规模卫星组网,为全球提供高速低延迟的宽带互联网服务。STARLINK-4339作为星链星座的组成部分,参与构建全球覆盖的卫星互联网络,助力实现全球无死角互联网接入服务,目前与其他数千颗星链卫星共同在轨运行。

基本信息
目录编号:
53054
目录名称:
STARLINK-4339
国际标识:
2022-077M
轨道中心:
EARTH
卫星名称:
星链-4339
卫星全名:
星链-4339 (STARLINK-4339 )
卫星状态:
在轨 (已飞行1343 天)
发射日期:
2022-07-11 UTC
国别 :
美国 (US)
星等 :
--
轨道信息
数据来源 国际轨道数据
星历时间: 2026-03-14T19:44:16+0800
15小时前
查看轨道信息
半长轴: 6927.658km
偏心率: 0.0001641
轨道倾角: 97.602°
近地点辐角 88.964°
升交点赤经 256.000°
平近点角 271.178°
近地点: 548.384km
远地点: 550.658km
周期: 95.640分钟
每日圈数: 15.056471
详细信息
固有亮度:
5
最大亮度:
2.5
卫星平台:
Starlink v1.5
覆盖范围:
全球
运营商:
太空探索技术公司
运营商所在国:
美国
制造商(研发单位):
太空探索技术公司
制造商所在国:
美国
使用方式:
暂无
卫星简介
星链(Starlink)计划是由太空探索技术公司(SpaceX)提出的一个巨型低轨卫星互联网星座项目,计划在2019年至2024年间在太空搭建由约1.2万颗卫星组成的“星链”网络,其中1584颗将部署在地球上空550千米处的近地轨道,并从2020年开始工作。该卫星仍在工作。
2D轨道图
3D轨道图
轨道高度分析图
轨道倾角分析图
轨道综合分析图
查看轨道综合分析图